GPS BIIR-18M (32384 NORAD) Tracking and Keplerian Element Data

This shows tracking and keplerian element data for the satellite.

Feedback or suggestion? Click here.




ElementValue
Catalog32384
NameGPS BIIR-18M
Epoch Orbit8062
Epoch Day350.35438698
Epoch Year2018
RAAN22.2858
Inclination56.441
Eccentricity0.0003839
Argument of Perigee92.3425
Mean Anonmoly270.9576
Mean Motion2.00574058
Decay Rate-6.1E-07
L11 32384U 07062A 18350.35438698 -.00000061 00000-0 00000+0 0 9995
L22 32384 56.4410 22.2858 0003839 92.3425 270.9576 2.00574058 80620

Live tracking and technical data element details for GPS BIIR-18M (NORAD 32384). GPS BIIR-18M can be tracked NOW for your location showing map with azimuth and elevation plus other details from your city location.

Track the satellite on the map from your city or location and see movement details for azimuth, elevation, latitude, longitude, range, height, and movement on the map or in text.







IsCatalogInMostPopularTable: catalog: 32384, numindb: 51
Update: records affected: 1



GetName: 32384 GPS BIIR-18M

Hit Count: updated at: Tue, 18 Dec 2018 21:54:17 GMT